Regional Weather Roundup
Issued by NWS

Home | Current Version | Previous Version | Text Only | Print | Product List | Glossary On
Versions: 1 2 3 4 5 6 7 8 9 10 11 12 13 14 15 16 17 18 19 20 21 22 23 24 25 26 27 28 29 30 31 32 33 34 35 36 37 38 39 40 41 42 43 44 45 46 47 48 49 50
000
ASCA42 TJSJ 010110
RWRPR
PUERTO RICO/U.S. VIRGIN ISLANDS HOURLY WEATHER ROUNDUP
NATIONAL WEATHER SERVICE SAN JUAN PR
900 PM AST SAT FEB 28 2015

PRZ001-004-010200-
PUERTO RICO

CITY           SKY/WX    TMP DP  RH WIND       PRES   REMARKS
SAN JUAN LMM   MOCLDY    75  68  78 E18G29    30.13R
AGUADILLA      LGT RAIN  73  72  94 E21G26    30.14R
CEIBA          CLOUDY    79  70  73 E9G18     30.16R
$$

PRZ006-007-010200-
U.S. VIRGIN ISLANDS

CITY           SKY/WX    TMP DP  RH WIND       PRES   REMARKS
CHARLOTTE AMA  MOCLDY    75  66  73 E10       30.13R
CHRISTIANSTED  MOCLDY    77  70  78 NE10      30.13R
$$

HOURLY WEATHER ROUNDUP FOR THE NEWS MEDIA

CITY           SKY/WX    TMP DP  RH WIND       PRES   REMARKS
ORLANDO        LGT RAIN  66  65  96 E8        30.35R
NEW YORK       FAIR      26  10  50 SW10      30.77S WCI  16
NEWARK         FAIR      24   5  44 SW6       30.76S WCI  17
CHICAGO        CLOUDY    20   4  50 S8        30.53R WCI  10
HARTFORD       CLEAR     17   9  70 CALM      30.71S
BOSTON         CLEAR     26   4  38 SW8       30.70S WCI  18
DALLAS         FRZ DRZL  32  28  86 NE6       30.32S WCI  26
PHILADELPHIA   FAIR      27   5  39 S5        30.77F WCI  22
LOS ANGELES    MOCLDY    59  46  62 SW12      29.85S
WASHINGTON DC  FAIR      19   7  59 CALM      30.76R


USA.gov is the U.S. government's official web portal to all federal, state and local government web resources and services.